GIA3510 WIEE-OEMA

Flight info

Callsign GIA3510
Flight time 8h 16m
Altitude 32000
Route RIVMA DCT ODIRU M766 GUTOX/N0498F340 M766 KAT P570 TVM UL425 MAMIG/N0488F360 UL425 ASPUX N315 SITOL DCT PUSON L883 KITUB Y511 ELONU
Aircraft B77W/H-SDE1E2E3FGHIJ4J5M1RWXY/LB1D1

Departure

Time 2026-05-04 23:20
Airport Minangkabau International Airport (WIEE)

Arrival

Time 2026-05-05 07:36
Airport Prince Mohammad Bin Abdulaziz Airport (OEMA)
Time Latitude Longitude Altitude Speed Heading
2026-05-04 23:16 -0.79195 100.28316 33 ft 11 kts 155°
2026-05-04 23:17 -0.79266 100.28349 33 ft 11 kts 155°
2026-05-04 23:17 -0.79334 100.28380 33 ft 11 kts 155°
2026-05-04 23:17 -0.79404 100.28412 32 ft 12 kts 155°
2026-05-04 23:17 -0.79479 100.28447 31 ft 12 kts 155°
2026-05-04 23:18 -0.79556 100.28482 33 ft 12 kts 155°
2026-05-04 23:18 -0.79631 100.28518 34 ft 12 kts 155°
2026-05-04 23:18 -0.79704 100.28555 34 ft 10 kts 146°
2026-05-04 23:18 -0.79747 100.28598 34 ft 7 kts 127°
2026-05-04 23:19 -0.79781 100.28608 34 ft 5 kts 218°
2026-05-04 23:19 -0.79772 100.28579 34 ft 5 kts 324°
2026-05-04 23:19 -0.79742 100.28568 34 ft 1 kts 336°
2026-05-04 23:19 -0.79724 100.28559 34 ft 13 kts 335°
2026-05-04 23:20 -0.79475 100.28446 31 ft 77 kts 335°
2026-05-04 23:20 -0.78749 100.28107 34 ft 151 kts 335°
2026-05-04 23:20 -0.77610 100.27576 122 ft 199 kts 335°
2026-05-04 23:20 -0.76369 100.26994 808 ft 196 kts 334°
2026-05-04 23:21 -0.75117 100.26412 1523 ft 201 kts 335°
2026-05-04 23:21 -0.73805 100.25815 1861 ft 219 kts 335°
2026-05-04 23:21 -0.72349 100.25151 2030 ft 243 kts 335°
2026-05-04 23:21 -0.70753 100.24422 2381 ft 258 kts 335°
2026-05-04 23:22 -0.69094 100.23663 2996 ft 265 kts 335°
2026-05-04 23:22 -0.67406 100.22890 3674 ft 269 kts 335°
2026-05-04 23:22 -0.65692 100.22106 4402 ft 272 kts 335°
2026-05-04 23:22 -0.63962 100.21313 5085 ft 275 kts 335°
2026-05-04 23:23 -0.62335 100.20327 5632 ft 277 kts 312°
2026-05-04 23:23 -0.61346 100.18682 6183 ft 278 kts 292°
2026-05-04 23:23 -0.60595 100.16886 6763 ft 282 kts 292°
2026-05-04 23:23 -0.59829 100.15073 7409 ft 284 kts 292°
2026-05-04 23:24 -0.59058 100.13245 8045 ft 287 kts 292°
2026-05-04 23:24 -0.58278 100.11399 8675 ft 290 kts 292°
2026-05-04 23:24 -0.57487 100.09531 9255 ft 294 kts 292°
2026-05-04 23:24 -0.56687 100.07644 9872 ft 297 kts 292°
2026-05-04 23:25 -0.55873 100.05727 10359 ft 305 kts 292°
2026-05-04 23:25 -0.55016 100.03712 10496 ft 326 kts 292°
2026-05-04 23:25 -0.54102 100.01565 10682 ft 346 kts 292°
2026-05-04 23:25 -0.53132 99.99288 10869 ft 365 kts 292°
2026-05-04 23:26 -0.52136 99.96952 11322 ft 375 kts 293°
2026-05-04 23:26 -0.51104 99.94531 11888 ft 381 kts 293°
2026-05-04 23:26 -0.50060 99.92084 12601 ft 384 kts 293°
2026-05-04 23:26 -0.49010 99.89620 13305 ft 388 kts 293°
2026-05-04 23:27 -0.47948 99.87129 13930 ft 392 kts 293°
2026-05-04 23:27 -0.46873 99.84608 14504 ft 396 kts 293°
2026-05-04 23:27 -0.45788 99.82064 15105 ft 400 kts 293°
2026-05-04 23:27 -0.44647 99.79521 15692 ft 403 kts 295°
2026-05-04 23:28 -0.43439 99.76972 16256 ft 407 kts 296°
2026-05-04 23:28 -0.42207 99.74415 16819 ft 411 kts 296°
2026-05-04 23:28 -0.40960 99.71827 17380 ft 415 kts 296°
2026-05-04 23:28 -0.39705 99.69207 17940 ft 419 kts 296°
2026-05-04 23:29 -0.38449 99.66572 18449 ft 423 kts 296°
2026-05-04 23:29 -0.37183 99.63905 18916 ft 426 kts 296°
2026-05-04 23:29 -0.35909 99.61216 19413 ft 430 kts 296°
2026-05-04 23:29 -0.34626 99.58505 19876 ft 433 kts 296°
2026-05-04 23:30 -0.33334 99.55775 20357 ft 436 kts 296°
2026-05-04 23:30 -0.32032 99.53025 20820 ft 440 kts 296°
2026-05-04 23:30 -0.30718 99.50249 21283 ft 443 kts 296°
2026-05-04 23:30 -0.29396 99.47455 21725 ft 447 kts 296°
2026-05-04 23:31 -0.28063 99.44639 22188 ft 450 kts 296°
2026-05-04 23:31 -0.26722 99.41804 22632 ft 453 kts 296°
2026-05-04 23:31 -0.25367 99.38943 23076 ft 457 kts 296°
2026-05-04 23:31 -0.24023 99.36104 23479 ft 460 kts 296°
2026-05-04 23:32 -0.22651 99.33205 23833 ft 463 kts 296°
2026-05-04 23:32 -0.21275 99.30292 24203 ft 465 kts 296°
2026-05-04 23:32 -0.19890 99.27361 24577 ft 467 kts 296°
2026-05-04 23:32 -0.18501 99.24420 24939 ft 470 kts 296°
2026-05-04 23:33 -0.17103 99.21459 25297 ft 472 kts 296°
2026-05-04 23:33 -0.15698 99.18483 25638 ft 475 kts 296°
2026-05-04 23:33 -0.14287 99.15495 25977 ft 477 kts 296°
2026-05-04 23:33 -0.12865 99.12485 26322 ft 480 kts 296°
2026-05-04 23:34 -0.11439 99.09466 26641 ft 482 kts 296°
2026-05-04 23:34 -0.10006 99.06432 26978 ft 484 kts 296°
2026-05-04 23:34 -0.08563 99.03376 27305 ft 487 kts 296°
2026-05-04 23:34 -0.07115 99.00310 27628 ft 489 kts 296°
2026-05-04 23:35 -0.05660 98.97230 27944 ft 492 kts 296°
2026-05-04 23:35 -0.04196 98.94130 28246 ft 494 kts 296°
2026-05-04 23:35 -0.02728 98.91021 28552 ft 496 kts 296°
2026-05-04 23:35 -0.01252 98.87896 28846 ft 499 kts 296°
2026-05-04 23:36 0.00233 98.84749 29127 ft 501 kts 296°
2026-05-04 23:36 0.01722 98.81596 29416 ft 503 kts 296°
2026-05-04 23:36 0.03214 98.78429 29678 ft 504 kts 294°
2026-05-04 23:36 0.04316 98.75099 29798 ft 508 kts 280°
2026-05-04 23:37 0.04450 98.71577 29951 ft 509 kts 263°
2026-05-04 23:37 0.03995 98.68070 30133 ft 510 kts 262°
2026-05-04 23:37 0.03547 98.64542 30320 ft 512 kts 263°
2026-05-04 23:37 0.03128 98.61004 30530 ft 514 kts 263°
2026-05-04 23:38 0.02735 98.57461 30749 ft 514 kts 264°
2026-05-04 23:38 0.02359 98.53904 30949 ft 516 kts 264°
2026-05-04 23:38 0.01991 98.50331 31134 ft 517 kts 264°
2026-05-04 23:38 0.01628 98.46755 31294 ft 519 kts 264°
2026-05-04 23:39 0.01268 98.43209 31460 ft 520 kts 264°
2026-05-04 23:39 0.00902 98.39615 31659 ft 520 kts 264°
2026-05-04 23:39 0.00534 98.36021 31801 ft 522 kts 264°
2026-05-04 23:39 0.00164 98.32417 31835 ft 521 kts 264°
2026-05-04 23:40 -0.00569 98.25289 31866 ft 511 kts 264°
2026-05-04 23:40 -0.01294 98.18258 31874 ft 508 kts 264°
2026-05-04 23:41 -0.02017 98.11236 31875 ft 508 kts 264°
2026-05-04 23:41 -0.02739 98.04220 31877 ft 508 kts 264°
2026-05-04 23:42 -0.03462 97.97200 31874 ft 509 kts 264°
2026-05-04 23:42 -0.04187 97.90158 31873 ft 509 kts 264°
2026-05-04 23:43 -0.04912 97.83116 31873 ft 510 kts 264°
2026-05-04 23:43 -0.05638 97.76067 31871 ft 511 kts 264°
2026-05-04 23:44 -0.06364 97.69010 31869 ft 511 kts 264°
2026-05-04 23:44 -0.07091 97.61949 31870 ft 511 kts 264°
2026-05-04 23:45 -0.07813 97.54937 31871 ft 511 kts 264°
2026-05-04 23:45 -0.08540 97.47877 31871 ft 510 kts 264°
2026-05-04 23:46 -0.09265 97.40830 31869 ft 510 kts 264°
2026-05-04 23:46 -0.09991 97.33774 31868 ft 510 kts 264°
2026-05-04 23:47 -0.10716 97.26730 31869 ft 510 kts 264°
2026-05-04 23:47 -0.11442 97.19680 31868 ft 510 kts 264°
2026-05-04 23:48 -0.12166 97.12643 31868 ft 510 kts 264°
2026-05-04 23:48 -0.12892 97.05595 31867 ft 510 kts 264°
2026-05-04 23:49 -0.13617 96.98545 31868 ft 510 kts 264°
2026-05-04 23:49 -0.14344 96.91485 31867 ft 511 kts 264°
2026-05-04 23:50 -0.15070 96.84428 31873 ft 511 kts 264°
2026-05-04 23:50 -0.15797 96.77366 31870 ft 511 kts 264°
2026-05-04 23:51 -0.16524 96.70303 31870 ft 512 kts 264°
2026-05-04 23:51 -0.17247 96.63273 31867 ft 512 kts 264°
2026-05-04 23:52 -0.17975 96.56202 31864 ft 512 kts 264°
2026-05-04 23:52 -0.18702 96.49136 31866 ft 511 kts 264°
2026-05-04 23:53 -0.19430 96.42064 31860 ft 511 kts 264°
2026-05-04 23:53 -0.20156 96.35005 31863 ft 511 kts 264°
2026-05-04 23:54 -0.20882 96.27948 31862 ft 511 kts 264°
2026-05-04 23:54 -0.21608 96.20894 31863 ft 510 kts 264°
2026-05-04 23:55 -0.22333 96.13847 31861 ft 510 kts 264°
2026-05-04 23:56 -0.23419 96.03287 31859 ft 509 kts 264°
2026-05-04 23:56 -0.24142 95.96253 31857 ft 509 kts 264°
2026-05-04 23:57 -0.24865 95.89224 31859 ft 508 kts 264°
2026-05-04 23:57 -0.25465 95.83390 31853 ft 508 kts 264°
2026-05-04 23:58 -0.26187 95.76369 31861 ft 508 kts 264°
2026-05-04 23:58 -0.27027 95.68210 31860 ft 508 kts 264°
2026-05-04 23:59 -0.27747 95.61199 31859 ft 508 kts 264°
2026-05-04 23:59 -0.28352 95.55317 31854 ft 508 kts 264°
2026-05-05 00:00 -0.29074 95.48299 31856 ft 508 kts 264°
2026-05-05 00:00 -0.29795 95.41280 31853 ft 508 kts 264°
2026-05-05 00:01 -0.30512 95.34312 31859 ft 508 kts 264°
2026-05-05 00:01 -0.31234 95.27289 31862 ft 508 kts 264°
2026-05-05 00:02 -0.31955 95.20266 31858 ft 508 kts 264°
2026-05-05 00:02 -0.32488 95.13245 31848 ft 507 kts 273°
2026-05-05 00:03 -0.31178 95.06363 31865 ft 505 kts 290°
2026-05-05 00:03 -0.28227 95.00006 31863 ft 504 kts 297°
2026-05-05 00:04 -0.25056 94.93744 31859 ft 506 kts 297°
2026-05-05 00:04 -0.21919 94.87444 31855 ft 507 kts 297°
2026-05-05 00:05 -0.18821 94.81122 31858 ft 507 kts 296°
2026-05-05 00:05 -0.15730 94.74785 31856 ft 507 kts 296°
2026-05-05 00:06 -0.12638 94.68451 31858 ft 507 kts 296°
2026-05-05 00:06 -0.09544 94.62119 31858 ft 507 kts 296°
2026-05-05 00:07 -0.06446 94.55782 31998 ft 509 kts 296°
2026-05-05 00:07 -0.04912 94.52643 32290 ft 508 kts 296°
2026-05-05 00:07 -0.03344 94.49436 32640 ft 506 kts 296°
2026-05-05 00:07 -0.01808 94.46293 32988 ft 503 kts 296°
2026-05-05 00:08 -0.00293 94.43194 33315 ft 502 kts 296°
2026-05-05 00:08 0.01235 94.40068 33598 ft 501 kts 296°
2026-05-05 00:08 0.02765 94.36937 33779 ft 501 kts 296°
2026-05-05 00:09 0.05832 94.30663 33853 ft 502 kts 296°
2026-05-05 00:09 0.08893 94.24401 33853 ft 501 kts 296°
2026-05-05 00:10 0.11945 94.18156 33858 ft 500 kts 296°
2026-05-05 00:10 0.14991 94.11924 33860 ft 499 kts 296°
2026-05-05 00:11 0.18037 94.05692 33858 ft 499 kts 296°
2026-05-05 00:11 0.21084 93.99458 33855 ft 500 kts 296°
2026-05-05 00:12 0.24135 93.93216 33854 ft 500 kts 296°
2026-05-05 00:12 0.27188 93.86968 33859 ft 500 kts 296°
2026-05-05 00:13 0.30242 93.80719 33861 ft 501 kts 296°
2026-05-05 00:13 0.33298 93.74464 33859 ft 501 kts 296°
2026-05-05 00:14 0.36356 93.68208 33859 ft 501 kts 296°
2026-05-05 00:14 0.39412 93.61946 33857 ft 501 kts 296°
2026-05-05 00:15 0.42444 93.55728 33856 ft 501 kts 296°
2026-05-05 00:15 0.45494 93.49469 33858 ft 501 kts 296°
2026-05-05 00:16 0.48539 93.43220 33853 ft 500 kts 296°
2026-05-05 00:16 0.51586 93.36967 33854 ft 500 kts 296°
2026-05-05 00:17 0.54630 93.30722 33860 ft 500 kts 296°
2026-05-05 00:17 0.57673 93.24476 33850 ft 500 kts 296°
2026-05-05 00:18 0.60718 93.18228 33853 ft 500 kts 296°
2026-05-05 00:18 0.63760 93.11985 33854 ft 500 kts 296°
2026-05-05 00:19 0.66803 93.05739 33851 ft 500 kts 297°
2026-05-05 00:19 0.69844 92.99499 33851 ft 500 kts 296°
2026-05-05 00:20 0.72890 92.93248 33849 ft 500 kts 296°
2026-05-05 00:20 0.75915 92.87038 33851 ft 500 kts 297°
2026-05-05 00:21 0.78959 92.80790 33853 ft 500 kts 297°
2026-05-05 00:21 0.82003 92.74541 33853 ft 500 kts 297°
2026-05-05 00:22 0.85050 92.68287 33855 ft 500 kts 297°
2026-05-05 00:22 0.88094 92.62037 33856 ft 500 kts 297°
2026-05-05 00:23 0.91136 92.55792 33852 ft 500 kts 297°
2026-05-05 00:23 0.94177 92.49548 33856 ft 500 kts 297°
2026-05-05 00:24 0.97224 92.43293 33858 ft 500 kts 297°
2026-05-05 00:24 1.00266 92.37045 33857 ft 500 kts 297°
2026-05-05 00:25 1.03309 92.30797 33856 ft 500 kts 297°
2026-05-05 00:25 1.06351 92.24549 33855 ft 500 kts 297°
2026-05-05 00:26 1.09396 92.18296 33854 ft 500 kts 297°
2026-05-05 00:26 1.12441 92.12040 33852 ft 500 kts 297°
2026-05-05 00:27 1.15462 92.05832 33855 ft 500 kts 297°
2026-05-05 00:27 1.18508 91.99576 33855 ft 501 kts 297°
2026-05-05 00:28 1.21594 91.93339 33858 ft 500 kts 297°
2026-05-05 00:28 1.24701 91.87119 33858 ft 500 kts 297°
2026-05-05 00:29 1.27805 91.80898 33852 ft 500 kts 297°
2026-05-05 00:29 1.30903 91.74675 33853 ft 500 kts 297°
2026-05-05 00:30 1.33995 91.68454 33858 ft 500 kts 297°
2026-05-05 00:30 1.37086 91.62236 33856 ft 500 kts 297°
2026-05-05 00:31 1.40178 91.56014 33861 ft 500 kts 297°
2026-05-05 00:31 1.43273 91.49790 33861 ft 500 kts 297°
2026-05-05 00:32 1.46366 91.43568 33860 ft 500 kts 297°
2026-05-05 00:32 1.49462 91.37341 33863 ft 500 kts 297°
2026-05-05 00:33 1.52555 91.31116 33859 ft 500 kts 297°
2026-05-05 00:33 1.55628 91.24932 33859 ft 500 kts 297°
2026-05-05 00:34 1.58747 91.18658 33858 ft 501 kts 297°
2026-05-05 00:34 1.61823 91.12468 33859 ft 501 kts 297°
2026-05-05 00:35 1.64926 91.06223 33861 ft 502 kts 297°
2026-05-05 00:35 1.68027 90.99980 33865 ft 502 kts 297°
2026-05-05 00:36 1.71132 90.93726 33864 ft 503 kts 297°
2026-05-05 00:36 1.74244 90.87464 33864 ft 503 kts 297°
2026-05-05 00:37 1.77356 90.81198 33865 ft 503 kts 297°
2026-05-05 00:37 1.80468 90.74930 33863 ft 504 kts 297°
2026-05-05 00:38 1.83586 90.68649 33864 ft 504 kts 297°
2026-05-05 00:38 1.86701 90.62376 33862 ft 504 kts 297°
2026-05-05 00:39 1.89814 90.56103 33864 ft 504 kts 297°
2026-05-05 00:39 1.92929 90.49829 33860 ft 503 kts 297°
2026-05-05 00:40 1.96036 90.43570 33865 ft 503 kts 297°
2026-05-05 00:40 1.99146 90.37303 33866 ft 503 kts 297°
2026-05-05 00:41 2.02229 90.31090 33859 ft 502 kts 297°
2026-05-05 00:41 2.05335 90.24829 33866 ft 502 kts 297°
2026-05-05 00:42 2.08438 90.18574 33864 ft 502 kts 297°
2026-05-05 00:42 2.11538 90.12324 33861 ft 502 kts 297°
2026-05-05 00:43 2.14633 90.06082 33860 ft 501 kts 297°
2026-05-05 00:43 2.17715 89.99866 33859 ft 501 kts 297°
2026-05-05 00:44 2.20825 89.93594 33857 ft 501 kts 297°
2026-05-05 00:44 2.23919 89.87354 33861 ft 501 kts 297°
2026-05-05 00:45 2.27010 89.81116 33866 ft 501 kts 297°
2026-05-05 00:45 2.30102 89.74878 33863 ft 500 kts 297°
2026-05-05 00:46 2.33190 89.68643 33860 ft 500 kts 297°
2026-05-05 00:46 2.36277 89.62405 33860 ft 501 kts 297°
2026-05-05 00:47 2.39366 89.56162 33864 ft 501 kts 298°
2026-05-05 00:47 2.42455 89.49918 33868 ft 501 kts 298°
2026-05-05 00:48 2.45542 89.43677 33864 ft 501 kts 298°
2026-05-05 00:48 2.48632 89.37429 33865 ft 501 kts 298°
2026-05-05 00:49 2.51698 89.31230 33867 ft 501 kts 298°
2026-05-05 00:49 2.54784 89.24988 33867 ft 500 kts 298°
2026-05-05 00:50 2.57866 89.18753 33865 ft 500 kts 298°
2026-05-05 00:50 2.60951 89.12513 33866 ft 500 kts 298°
2026-05-05 00:51 2.64032 89.06279 33866 ft 500 kts 298°
2026-05-05 00:51 2.66611 89.01061 33867 ft 500 kts 298°
2026-05-05 00:52 2.69673 88.94862 33864 ft 500 kts 298°
2026-05-05 00:52 2.72755 88.88624 33865 ft 500 kts 298°
2026-05-05 00:53 2.75837 88.82384 33861 ft 500 kts 298°
2026-05-05 00:53 2.78922 88.76137 33865 ft 501 kts 298°
2026-05-05 00:54 2.82005 88.69893 33863 ft 501 kts 298°
2026-05-05 00:54 2.85089 88.63646 33866 ft 501 kts 298°
2026-05-05 00:55 2.88174 88.57394 33865 ft 501 kts 298°
2026-05-05 00:55 2.91257 88.51147 33863 ft 501 kts 298°
2026-05-05 00:56 2.94349 88.44915 33862 ft 500 kts 299°
2026-05-05 00:56 2.97582 88.38759 33865 ft 499 kts 300°
2026-05-05 00:57 3.00848 88.32637 33866 ft 499 kts 300°
2026-05-05 00:57 3.04091 88.26515 33862 ft 498 kts 300°
2026-05-05 00:58 3.07300 88.20422 33863 ft 498 kts 300°
2026-05-05 00:58 3.10522 88.14297 33861 ft 497 kts 300°
2026-05-05 00:59 3.13740 88.08179 33860 ft 497 kts 300°
2026-05-05 00:59 3.16960 88.02061 33864 ft 497 kts 300°
2026-05-05 01:00 3.20178 87.95944 33863 ft 497 kts 300°
2026-05-05 01:00 3.23399 87.89822 33862 ft 497 kts 300°
2026-05-05 01:01 3.26613 87.83709 33867 ft 497 kts 300°
2026-05-05 01:01 3.29828 87.77593 33861 ft 497 kts 300°
2026-05-05 01:02 3.33017 87.71461 33863 ft 497 kts 299°
2026-05-05 01:02 3.36100 87.65267 33868 ft 497 kts 298°
2026-05-05 01:03 3.39153 87.59074 33861 ft 496 kts 298°
2026-05-05 01:03 3.42221 87.52885 33858 ft 496 kts 298°
2026-05-05 01:04 3.45292 87.46713 33863 ft 496 kts 298°
2026-05-05 01:04 3.49881 87.37498 33860 ft 495 kts 298°
2026-05-05 01:05 3.52951 87.31330 33860 ft 495 kts 298°
2026-05-05 01:05 3.56017 87.25169 33856 ft 494 kts 298°
2026-05-05 01:06 3.59082 87.19006 33858 ft 494 kts 298°
2026-05-05 01:06 3.62142 87.12852 33862 ft 494 kts 298°
2026-05-05 01:07 3.65206 87.06691 33859 ft 494 kts 298°
2026-05-05 01:07 3.68267 87.00534 33854 ft 494 kts 298°
2026-05-05 01:08 3.71327 86.94378 33860 ft 494 kts 298°
2026-05-05 01:08 3.74387 86.88220 33859 ft 494 kts 298°
2026-05-05 01:09 3.77448 86.82060 33860 ft 494 kts 298°
2026-05-05 01:09 3.80512 86.75890 33859 ft 495 kts 298°
2026-05-05 01:10 3.83574 86.69725 33860 ft 495 kts 298°
2026-05-05 01:10 3.86622 86.63586 33861 ft 495 kts 298°
2026-05-05 01:11 3.89688 86.57409 33859 ft 496 kts 298°
2026-05-05 01:11 3.92757 86.51225 33858 ft 496 kts 298°
2026-05-05 01:12 3.95829 86.45036 33859 ft 496 kts 298°
2026-05-05 01:12 3.98898 86.38848 33861 ft 496 kts 298°
2026-05-05 01:13 4.01966 86.32662 33860 ft 496 kts 298°
2026-05-05 01:13 4.05036 86.26470 33862 ft 496 kts 298°
2026-05-05 01:14 4.08102 86.20284 33862 ft 496 kts 298°
2026-05-05 01:14 4.11169 86.14096 33861 ft 496 kts 298°
2026-05-05 01:15 4.14233 86.07913 33856 ft 496 kts 298°
2026-05-05 01:15 4.17296 86.01729 33863 ft 495 kts 298°
2026-05-05 01:16 4.20362 85.95541 33862 ft 495 kts 298°
2026-05-05 01:16 4.23421 85.89364 33862 ft 495 kts 298°
2026-05-05 01:17 4.26481 85.83178 33858 ft 495 kts 298°
2026-05-05 01:17 4.29540 85.76995 33863 ft 495 kts 298°
2026-05-05 01:18 4.32581 85.70849 33860 ft 495 kts 298°
2026-05-05 01:18 4.35641 85.64664 33855 ft 495 kts 298°
2026-05-05 01:19 4.38699 85.58485 33862 ft 495 kts 298°
2026-05-05 01:19 4.41755 85.52303 33855 ft 495 kts 298°
2026-05-05 01:20 4.44814 85.46113 33857 ft 495 kts 298°
2026-05-05 01:20 4.47871 85.39928 33859 ft 495 kts 298°
2026-05-05 01:21 4.50925 85.33746 33858 ft 495 kts 298°
2026-05-05 01:21 4.53985 85.27551 33855 ft 496 kts 298°
2026-05-05 01:22 4.57042 85.21360 33852 ft 496 kts 298°
2026-05-05 01:22 4.60102 85.15158 33856 ft 496 kts 298°
2026-05-05 01:23 4.63160 85.08964 33856 ft 496 kts 298°
2026-05-05 01:23 4.66220 85.02763 33857 ft 496 kts 298°
2026-05-05 01:24 4.69275 84.96570 33858 ft 496 kts 297°
2026-05-05 01:24 4.72330 84.90376 33850 ft 495 kts 298°
2026-05-05 01:25 4.75380 84.84190 33853 ft 495 kts 297°
2026-05-05 01:25 4.78406 84.78048 33855 ft 494 kts 297°
2026-05-05 01:26 4.81445 84.71882 33846 ft 493 kts 297°
2026-05-05 01:26 4.84481 84.65719 33854 ft 492 kts 297°
2026-05-05 01:27 4.87512 84.59564 33845 ft 492 kts 297°
2026-05-05 01:27 4.90539 84.53417 33852 ft 492 kts 297°
2026-05-05 01:28 4.93566 84.47266 33850 ft 492 kts 297°
2026-05-05 01:28 4.96596 84.41109 33852 ft 493 kts 297°
2026-05-05 01:29 4.99629 84.34943 33853 ft 493 kts 297°
2026-05-05 01:29 5.02665 84.28771 33849 ft 494 kts 297°
2026-05-05 01:30 5.05706 84.22583 33852 ft 495 kts 297°
2026-05-05 01:30 5.08751 84.16387 33853 ft 495 kts 297°
2026-05-05 01:31 5.11779 84.10224 33857 ft 496 kts 297°
2026-05-05 01:31 5.14828 84.04015 33851 ft 496 kts 297°
2026-05-05 01:32 5.17867 83.97801 33853 ft 496 kts 296°
2026-05-05 01:32 5.20840 83.91554 33849 ft 496 kts 296°
2026-05-05 01:33 5.23795 83.85296 33854 ft 496 kts 296°
2026-05-05 01:33 5.26757 83.79039 33853 ft 496 kts 296°
2026-05-05 01:34 5.29725 83.72785 33853 ft 497 kts 296°
2026-05-05 01:34 5.32693 83.66531 33851 ft 497 kts 296°
2026-05-05 01:35 5.35663 83.60269 33858 ft 497 kts 296°
2026-05-05 01:35 5.38636 83.54004 33850 ft 497 kts 296°
2026-05-05 01:36 5.41599 83.47756 33854 ft 497 kts 296°
2026-05-05 01:36 5.44569 83.41489 33855 ft 497 kts 296°
2026-05-05 01:37 5.47539 83.35220 33849 ft 497 kts 295°
2026-05-05 01:37 5.50510 83.28949 33850 ft 497 kts 295°
2026-05-05 01:38 5.53479 83.22677 33853 ft 497 kts 295°
2026-05-05 01:38 5.56448 83.16405 33853 ft 497 kts 295°
2026-05-05 01:39 5.59416 83.10133 33852 ft 497 kts 295°
2026-05-05 01:39 5.62380 83.03868 33850 ft 497 kts 295°
2026-05-05 01:40 5.65327 82.97636 33850 ft 497 kts 295°
2026-05-05 01:40 5.68291 82.91368 33850 ft 497 kts 295°
2026-05-05 01:41 5.71259 82.85086 33853 ft 498 kts 295°
2026-05-05 01:41 5.74227 82.78804 33855 ft 498 kts 295°
2026-05-05 01:42 5.77196 82.72517 33854 ft 499 kts 295°
2026-05-05 01:42 5.80169 82.66220 33853 ft 499 kts 295°
2026-05-05 01:43 5.82641 82.60981 33849 ft 500 kts 295°
2026-05-05 01:43 5.85617 82.54675 33849 ft 499 kts 294°
2026-05-05 01:44 5.88587 82.48379 33852 ft 499 kts 294°
2026-05-05 01:44 5.91557 82.42079 33855 ft 500 kts 294°
2026-05-05 01:45 5.94535 82.35761 33852 ft 501 kts 294°
2026-05-05 01:45 5.97519 82.29428 33852 ft 502 kts 294°
2026-05-05 01:46 6.00507 82.23082 33854 ft 504 kts 294°
2026-05-05 01:46 6.03510 82.16703 33855 ft 506 kts 294°
2026-05-05 01:47 6.06519 82.10309 33858 ft 508 kts 294°
2026-05-05 01:47 6.09550 82.03866 33858 ft 511 kts 294°
2026-05-05 01:48 6.12586 81.97408 33851 ft 511 kts 294°
2026-05-05 01:48 6.15635 81.90956 33856 ft 512 kts 294°
2026-05-05 01:49 6.18698 81.84515 33851 ft 510 kts 294°
2026-05-05 01:49 6.21747 81.78099 33858 ft 510 kts 294°
2026-05-05 01:50 6.24791 81.71678 33854 ft 507 kts 294°
2026-05-05 01:50 6.27819 81.65287 33860 ft 506 kts 294°
2026-05-05 01:51 6.30811 81.58969 33855 ft 501 kts 294°
2026-05-05 01:51 6.33792 81.52685 33857 ft 496 kts 294°
2026-05-05 01:52 6.36874 81.46489 33865 ft 494 kts 296°
2026-05-05 01:52 6.40000 81.40344 33866 ft 494 kts 296°
2026-05-05 01:53 6.43118 81.34180 33873 ft 495 kts 296°
2026-05-05 01:53 6.46226 81.27999 33880 ft 496 kts 296°
2026-05-05 01:54 6.49340 81.21795 33879 ft 498 kts 296°
2026-05-05 01:54 6.52467 81.15564 33881 ft 500 kts 296°
2026-05-05 01:55 6.55599 81.09321 33882 ft 501 kts 296°
2026-05-05 01:55 6.58738 81.03065 33892 ft 501 kts 296°
2026-05-05 01:56 6.61880 80.96799 33893 ft 501 kts 296°
2026-05-05 01:56 6.65017 80.90539 33906 ft 501 kts 296°
2026-05-05 01:57 6.68150 80.84286 33920 ft 501 kts 296°
2026-05-05 01:57 6.71262 80.78072 33930 ft 501 kts 296°
2026-05-05 01:58 6.74394 80.71814 33932 ft 501 kts 296°
2026-05-05 01:58 6.77496 80.65546 33933 ft 500 kts 296°
2026-05-05 01:59 6.80575 80.59273 33938 ft 499 kts 296°
2026-05-05 01:59 6.83645 80.53021 33932 ft 498 kts 296°
2026-05-05 02:00 6.86716 80.46776 33930 ft 497 kts 296°
2026-05-05 02:00 6.89781 80.40542 33934 ft 496 kts 296°
2026-05-05 02:01 6.92835 80.34329 33928 ft 495 kts 296°
2026-05-05 02:01 6.95886 80.28117 33916 ft 495 kts 296°
2026-05-05 02:02 6.98934 80.21910 33912 ft 495 kts 296°
2026-05-05 02:02 7.01985 80.15696 33902 ft 495 kts 296°
2026-05-05 02:03 7.05032 80.09485 33897 ft 495 kts 296°
2026-05-05 02:03 7.08078 80.03275 33891 ft 495 kts 296°
2026-05-05 02:04 7.11109 79.97092 33887 ft 495 kts 296°
2026-05-05 02:04 7.14156 79.90872 33882 ft 495 kts 296°
2026-05-05 02:05 7.17191 79.84655 33885 ft 495 kts 295°
2026-05-05 02:05 7.20165 79.78399 33885 ft 495 kts 295°
2026-05-05 02:06 7.23118 79.72143 33888 ft 495 kts 295°
2026-05-05 02:06 7.26082 79.65879 33888 ft 495 kts 295°
2026-05-05 02:07 7.29050 79.59618 33885 ft 496 kts 295°
2026-05-05 02:07 7.32023 79.53349 33884 ft 496 kts 295°
2026-05-05 02:08 7.35001 79.47064 33883 ft 497 kts 295°
2026-05-05 02:08 7.37980 79.40775 33884 ft 498 kts 295°
2026-05-05 02:09 7.40960 79.34480 33878 ft 498 kts 295°
2026-05-05 02:09 7.43937 79.28188 33879 ft 498 kts 295°
2026-05-05 02:10 7.46900 79.21924 33877 ft 498 kts 295°
2026-05-05 02:10 7.49897 79.15584 33873 ft 498 kts 295°
2026-05-05 02:11 7.52816 79.09304 33873 ft 498 kts 294°
2026-05-05 02:11 7.55562 79.02897 33875 ft 498 kts 293°
2026-05-05 02:12 7.59634 78.93272 33872 ft 497 kts 293°
2026-05-05 02:13 7.62376 78.86872 33875 ft 497 kts 293°
2026-05-05 02:13 7.65120 78.80489 33873 ft 497 kts 293°
2026-05-05 02:14 7.67865 78.74101 33873 ft 496 kts 293°
2026-05-05 02:14 7.70605 78.67715 33873 ft 496 kts 293°
2026-05-05 02:15 7.73341 78.61337 33872 ft 495 kts 293°
2026-05-05 02:15 7.76069 78.54972 33870 ft 495 kts 293°
2026-05-05 02:16 7.78800 78.48597 33870 ft 495 kts 293°
2026-05-05 02:16 7.81525 78.42235 33870 ft 494 kts 293°
2026-05-05 02:17 7.84232 78.35911 33873 ft 494 kts 293°
2026-05-05 02:17 7.86952 78.29552 33872 ft 494 kts 293°
2026-05-05 02:18 7.89671 78.23194 33871 ft 494 kts 293°
2026-05-05 02:18 7.92389 78.16834 33870 ft 494 kts 293°
2026-05-05 02:19 7.95147 78.10496 33871 ft 494 kts 294°
2026-05-05 02:19 7.97973 78.04184 33875 ft 494 kts 294°
2026-05-05 02:20 8.00800 77.97871 33869 ft 494 kts 294°
2026-05-05 02:20 8.03619 77.91541 33870 ft 494 kts 294°
2026-05-05 02:21 8.06427 77.85219 33874 ft 494 kts 294°
2026-05-05 02:21 8.09232 77.78898 33875 ft 494 kts 294°
2026-05-05 02:22 8.12039 77.72575 33877 ft 493 kts 294°
2026-05-05 02:22 8.14841 77.66259 33875 ft 493 kts 294°
2026-05-05 02:23 8.17624 77.59981 33882 ft 493 kts 294°
2026-05-05 02:23 8.20427 77.53658 33887 ft 494 kts 294°
2026-05-05 02:24 8.23233 77.47323 33887 ft 494 kts 293°
2026-05-05 02:24 8.26034 77.40997 33892 ft 494 kts 294°
2026-05-05 02:25 8.28837 77.34661 33895 ft 494 kts 294°
2026-05-05 02:25 8.31639 77.28327 33895 ft 494 kts 294°
2026-05-05 02:26 8.34439 77.21993 33899 ft 494 kts 294°
2026-05-05 02:26 8.37234 77.15669 33893 ft 493 kts 294°
2026-05-05 02:27 8.40030 77.09336 33888 ft 493 kts 294°
2026-05-05 02:27 8.42822 77.03009 33887 ft 493 kts 294°
2026-05-05 02:28 8.45598 76.96716 33886 ft 492 kts 294°
2026-05-05 02:28 8.48269 76.90327 33885 ft 492 kts 289°
2026-05-05 02:29 8.50459 76.83778 33886 ft 492 kts 288°
2026-05-05 02:29 8.52609 76.77209 33888 ft 493 kts 288°
2026-05-05 02:30 8.54780 76.70643 33891 ft 493 kts 289°
2026-05-05 02:30 8.56970 76.64077 33890 ft 493 kts 289°
2026-05-05 02:31 8.59152 76.57549 33889 ft 494 kts 289°
2026-05-05 02:31 8.61348 76.50972 33890 ft 494 kts 289°
2026-05-05 02:32 8.63542 76.44396 33893 ft 494 kts 289°
2026-05-05 02:32 8.65737 76.37807 33895 ft 495 kts 288°
2026-05-05 02:33 8.67933 76.31213 33894 ft 495 kts 288°
2026-05-05 02:33 8.70128 76.24615 33889 ft 495 kts 288°
2026-05-05 02:34 8.71953 76.19131 33890 ft 495 kts 288°
2026-05-05 02:34 8.74148 76.12525 33891 ft 496 kts 288°
2026-05-05 02:35 8.76343 76.05920 33891 ft 496 kts 288°
2026-05-05 02:35 8.78539 75.99304 33893 ft 496 kts 288°
2026-05-05 02:36 8.80734 75.92689 33892 ft 497 kts 288°
2026-05-05 02:36 8.82931 75.86061 33894 ft 497 kts 288°
2026-05-05 02:37 8.85129 75.79428 33895 ft 498 kts 288°
2026-05-05 02:37 8.87330 75.72784 33894 ft 498 kts 288°
2026-05-05 02:38 8.89528 75.66140 33894 ft 499 kts 288°
2026-05-05 02:38 8.91727 75.59491 33896 ft 499 kts 288°
2026-05-05 02:39 8.93929 75.52826 33896 ft 499 kts 288°
2026-05-05 02:39 8.96128 75.46169 33891 ft 500 kts 288°
2026-05-05 02:40 8.98329 75.39500 33895 ft 500 kts 288°
2026-05-05 02:40 9.00513 75.32877 33894 ft 500 kts 288°
2026-05-05 02:41 9.02711 75.26210 33892 ft 499 kts 288°
2026-05-05 02:41 9.04902 75.19558 33893 ft 498 kts 288°
2026-05-05 02:42 9.07090 75.12912 33893 ft 498 kts 287°
2026-05-05 02:42 9.09275 75.06269 33895 ft 497 kts 287°
2026-05-05 02:43 9.11455 74.99636 33894 ft 497 kts 287°
2026-05-05 02:43 9.13632 74.93010 33896 ft 496 kts 287°
2026-05-05 02:44 9.15808 74.86381 33899 ft 496 kts 287°
2026-05-05 02:44 9.17980 74.79758 33894 ft 496 kts 287°
2026-05-05 02:45 9.20151 74.73136 33894 ft 496 kts 287°
2026-05-05 02:45 9.22323 74.66508 33894 ft 496 kts 287°
2026-05-05 02:46 9.24477 74.59927 33896 ft 496 kts 287°
2026-05-05 02:46 9.26645 74.53302 33894 ft 496 kts 287°
2026-05-05 02:47 9.28810 74.46680 33894 ft 496 kts 287°
2026-05-05 02:47 9.30975 74.40052 33894 ft 495 kts 287°
2026-05-05 02:48 9.33134 74.33439 33895 ft 495 kts 287°
2026-05-05 02:48 9.35290 74.26829 33897 ft 494 kts 287°
2026-05-05 02:49 9.37446 74.20215 33893 ft 494 kts 287°
2026-05-05 02:49 9.39602 74.13598 33895 ft 495 kts 287°
2026-05-05 02:50 9.41766 74.06967 33897 ft 497 kts 287°
2026-05-05 02:50 9.43973 74.00319 33896 ft 499 kts 288°
2026-05-05 02:51 9.46200 73.93639 33894 ft 502 kts 288°
2026-05-05 02:51 9.48429 73.86933 33895 ft 504 kts 288°
2026-05-05 02:52 9.50664 73.80192 33898 ft 505 kts 288°
2026-05-05 02:52 9.52901 73.73438 33896 ft 506 kts 288°
2026-05-05 02:53 9.55137 73.66681 33895 ft 505 kts 288°
2026-05-05 02:53 9.57350 73.59991 33893 ft 504 kts 288°
2026-05-05 02:54 9.59573 73.53265 33897 ft 503 kts 288°
2026-05-05 02:54 9.61791 73.46549 33894 ft 502 kts 288°
2026-05-05 02:55 9.64005 73.39842 33898 ft 501 kts 288°
2026-05-05 02:55 9.66214 73.33145 33892 ft 501 kts 288°
2026-05-05 02:56 9.68420 73.26451 33895 ft 500 kts 288°
2026-05-05 02:56 9.70622 73.19764 33895 ft 500 kts 288°
2026-05-05 02:57 9.72821 73.13084 33897 ft 499 kts 288°
2026-05-05 02:57 9.75015 73.06412 33899 ft 499 kts 288°
2026-05-05 02:58 9.77196 72.99775 33900 ft 498 kts 288°
2026-05-05 02:58 9.79392 72.93090 33894 ft 497 kts 288°
2026-05-05 02:59 9.81575 72.86438 33902 ft 497 kts 288°
2026-05-05 02:59 9.83753 72.79795 33899 ft 496 kts 288°
2026-05-05 03:00 9.85927 72.73161 33903 ft 496 kts 288°
2026-05-05 03:00 9.88099 72.66526 33896 ft 495 kts 288°
2026-05-05 03:01 9.90266 72.59905 33899 ft 494 kts 288°
2026-05-05 03:01 9.92430 72.53285 33904 ft 494 kts 288°
2026-05-05 03:02 9.94591 72.46670 33905 ft 494 kts 288°
2026-05-05 03:02 9.96984 72.40203 33902 ft 493 kts 296°
2026-05-05 03:03 10.00441 72.34211 33904 ft 492 kts 304°
2026-05-05 03:03 10.04298 72.28485 33903 ft 492 kts 304°
2026-05-05 03:04 10.08155 72.22754 33896 ft 492 kts 304°
2026-05-05 03:04 10.11986 72.16998 33899 ft 492 kts 304°
2026-05-05 03:05 10.15806 72.11225 33901 ft 493 kts 304°
2026-05-05 03:05 10.19627 72.05444 33896 ft 493 kts 304°
2026-05-05 03:06 10.23448 71.99662 33900 ft 494 kts 304°
2026-05-05 03:06 10.27271 71.93876 33899 ft 494 kts 304°
2026-05-05 03:07 10.31100 71.88079 33901 ft 494 kts 304°
2026-05-05 03:07 10.34903 71.82318 33900 ft 494 kts 304°
2026-05-05 03:08 10.38727 71.76523 33902 ft 494 kts 304°
2026-05-05 03:08 10.42548 71.70728 33894 ft 494 kts 304°
2026-05-05 03:09 10.46366 71.64936 33899 ft 493 kts 303°
2026-05-05 03:09 10.50181 71.59144 33901 ft 493 kts 303°
2026-05-05 03:10 10.53998 71.53347 33903 ft 493 kts 303°
2026-05-05 03:10 10.57805 71.47561 33903 ft 493 kts 303°
2026-05-05 03:11 10.61617 71.41766 33906 ft 493 kts 303°
2026-05-05 03:11 10.65427 71.35971 33904 ft 493 kts 303°
2026-05-05 03:12 10.69238 71.30170 33904 ft 493 kts 303°
2026-05-05 03:12 10.73051 71.24364 33903 ft 494 kts 303°
2026-05-05 03:13 10.76867 71.18550 33903 ft 494 kts 303°
2026-05-05 03:13 10.80679 71.12738 33909 ft 494 kts 303°
2026-05-05 03:14 10.84499 71.06912 33906 ft 494 kts 303°
2026-05-05 03:14 10.88313 71.01092 33903 ft 495 kts 303°
2026-05-05 03:15 10.92124 70.95273 33904 ft 495 kts 303°
2026-05-05 03:15 10.95943 70.89438 33906 ft 495 kts 303°
2026-05-05 03:16 10.99759 70.83605 33904 ft 495 kts 304°
2026-05-05 03:16 11.03549 70.77808 33908 ft 496 kts 304°
2026-05-05 03:17 11.07367 70.71965 33910 ft 496 kts 304°
2026-05-05 03:17 11.11189 70.66113 33909 ft 496 kts 304°
2026-05-05 03:18 11.15008 70.60264 33905 ft 496 kts 304°
2026-05-05 03:18 11.18830 70.54405 33907 ft 497 kts 304°
2026-05-05 03:19 11.24565 70.45608 33903 ft 497 kts 304°
2026-05-05 03:19 11.28385 70.39743 33909 ft 497 kts 304°
2026-05-05 03:20 11.32204 70.33876 33905 ft 497 kts 304°
2026-05-05 03:20 11.36024 70.28006 33910 ft 497 kts 304°
2026-05-05 03:21 11.39839 70.22141 33911 ft 497 kts 304°
2026-05-05 03:21 11.43653 70.16273 33916 ft 496 kts 304°
2026-05-05 03:22 11.47462 70.10408 33909 ft 496 kts 304°
2026-05-05 03:22 11.51244 70.04583 33911 ft 496 kts 304°
2026-05-05 03:23 11.55046 69.98722 33912 ft 495 kts 304°
2026-05-05 03:23 11.58845 69.92863 33910 ft 495 kts 304°
2026-05-05 03:24 11.62640 69.87004 33912 ft 495 kts 304°
2026-05-05 03:24 11.66431 69.81113 34334 ft 495 kts 304°
2026-05-05 03:25 11.68309 69.78185 34695 ft 493 kts 304°
2026-05-05 03:25 11.70185 69.75259 35015 ft 492 kts 304°
2026-05-05 03:25 11.72055 69.72342 35294 ft 491 kts 303°
2026-05-05 03:25 11.73926 69.69424 35546 ft 491 kts 304°
2026-05-05 03:26 11.75160 69.67500 35713 ft 491 kts 304°
2026-05-05 03:26 11.77034 69.64577 35845 ft 492 kts 303°
2026-05-05 03:26 11.80789 69.58719 35905 ft 492 kts 303°
2026-05-05 03:27 11.84523 69.52890 35910 ft 489 kts 303°
2026-05-05 03:27 11.88236 69.47091 35916 ft 487 kts 303°
2026-05-05 03:28 11.91934 69.41312 35914 ft 486 kts 303°
2026-05-05 03:28 11.95628 69.35535 35916 ft 486 kts 303°
2026-05-05 03:29 11.99324 69.29753 35916 ft 487 kts 303°
2026-05-05 03:29 12.03032 69.23947 35917 ft 488 kts 303°
2026-05-05 03:30 12.06722 69.18167 35917 ft 490 kts 303°
2026-05-05 03:30 12.10441 69.12335 35914 ft 491 kts 303°
2026-05-05 03:31 12.14172 69.06482 35917 ft 491 kts 303°
2026-05-05 03:31 12.17903 69.00627 35915 ft 492 kts 303°
2026-05-05 03:32 12.21644 68.94776 35910 ft 492 kts 304°
2026-05-05 03:32 12.25393 68.88934 35913 ft 491 kts 303°
2026-05-05 03:33 12.29134 68.83097 35913 ft 491 kts 303°
2026-05-05 03:33 12.32869 68.77259 35912 ft 490 kts 303°
2026-05-05 03:34 12.36601 68.71423 35910 ft 490 kts 303°
2026-05-05 03:34 12.40326 68.65595 35911 ft 489 kts 303°
2026-05-05 03:35 12.44043 68.59774 35913 ft 489 kts 303°
2026-05-05 03:35 12.47763 68.53946 35912 ft 489 kts 303°
2026-05-05 03:36 12.51480 68.48118 35909 ft 489 kts 303°
2026-05-05 03:36 12.55190 68.42298 35913 ft 489 kts 303°
2026-05-05 03:37 12.58882 68.36503 35909 ft 489 kts 303°
2026-05-05 03:37 12.62591 68.30675 35910 ft 489 kts 303°
2026-05-05 03:38 12.66300 68.24846 35910 ft 489 kts 303°
2026-05-05 03:38 12.70009 68.19011 35912 ft 489 kts 303°
2026-05-05 03:39 12.73720 68.13172 35909 ft 489 kts 303°
2026-05-05 03:39 12.77428 68.07332 35911 ft 489 kts 303°
2026-05-05 03:40 12.81137 68.01487 35914 ft 489 kts 303°
2026-05-05 03:40 12.84863 67.95649 35914 ft 489 kts 303°
2026-05-05 03:41 12.88598 67.89818 35912 ft 489 kts 303°
2026-05-05 03:41 12.92331 67.83982 35911 ft 489 kts 303°
2026-05-05 03:42 12.96061 67.78142 35912 ft 490 kts 303°
2026-05-05 03:42 12.99788 67.72301 35909 ft 490 kts 303°
2026-05-05 03:43 13.03516 67.66453 35911 ft 490 kts 303°
2026-05-05 03:43 13.07239 67.60609 35914 ft 490 kts 303°
2026-05-05 03:44 13.10967 67.54755 35913 ft 490 kts 303°
2026-05-05 03:44 13.14691 67.48902 35914 ft 490 kts 303°
2026-05-05 03:45 13.18415 67.43045 35909 ft 490 kts 303°
2026-05-05 03:45 13.22116 67.37222 35908 ft 490 kts 303°
2026-05-05 03:46 13.25835 67.31366 35911 ft 490 kts 303°
2026-05-05 03:46 13.29560 67.25497 35910 ft 490 kts 303°
2026-05-05 03:47 13.33281 67.19631 35914 ft 490 kts 303°
2026-05-05 03:47 13.36998 67.13765 35913 ft 490 kts 303°
2026-05-05 03:48 13.40720 67.07888 35911 ft 491 kts 303°
2026-05-05 03:48 13.44438 67.02014 35911 ft 491 kts 303°
2026-05-05 03:49 13.48157 66.96134 35911 ft 491 kts 303°
2026-05-05 03:49 13.51880 66.90246 35909 ft 491 kts 303°
2026-05-05 03:50 13.55598 66.84359 35908 ft 491 kts 303°
2026-05-05 03:50 13.59322 66.78460 35910 ft 492 kts 303°
2026-05-05 03:51 13.63044 66.72559 35907 ft 492 kts 303°
2026-05-05 03:51 13.66765 66.66655 35906 ft 492 kts 303°
2026-05-05 03:52 13.70463 66.60784 35910 ft 493 kts 303°
2026-05-05 03:52 13.74190 66.54865 35909 ft 493 kts 303°
2026-05-05 03:53 13.77915 66.48943 35913 ft 493 kts 303°
2026-05-05 03:53 13.81642 66.43014 35909 ft 493 kts 303°
2026-05-05 03:54 13.85370 66.37079 35909 ft 494 kts 303°
2026-05-05 03:54 13.89098 66.31141 35908 ft 494 kts 303°
2026-05-05 03:55 13.92827 66.25196 35906 ft 494 kts 303°
2026-05-05 03:55 13.96555 66.19248 35907 ft 495 kts 303°
2026-05-05 03:56 14.00281 66.13299 35907 ft 495 kts 303°
2026-05-05 03:56 14.04012 66.07339 35907 ft 495 kts 303°
2026-05-05 03:57 14.07713 66.01422 35905 ft 495 kts 303°
2026-05-05 03:57 14.11438 65.95462 35903 ft 495 kts 303°
2026-05-05 03:58 14.15166 65.89494 35904 ft 495 kts 303°
2026-05-05 03:58 14.18888 65.83531 35904 ft 495 kts 303°
2026-05-05 03:59 14.22615 65.77554 35906 ft 495 kts 302°
2026-05-05 03:59 14.26336 65.71584 35905 ft 495 kts 302°
2026-05-05 04:00 14.30057 65.65609 35897 ft 495 kts 302°
2026-05-05 04:00 14.33774 65.59635 35901 ft 494 kts 302°
2026-05-05 04:01 14.37482 65.53673 35906 ft 493 kts 302°
2026-05-05 04:01 14.41185 65.47715 35901 ft 493 kts 302°
2026-05-05 04:02 14.44884 65.41756 35902 ft 493 kts 302°
2026-05-05 04:02 14.48556 65.35838 35899 ft 493 kts 302°
2026-05-05 04:03 14.52249 65.29880 35902 ft 493 kts 302°
2026-05-05 04:03 14.55973 65.23869 35903 ft 494 kts 302°
2026-05-05 04:04 14.59650 65.17934 35898 ft 494 kts 302°
2026-05-05 04:04 14.63382 65.11974 35899 ft 494 kts 303°
2026-05-05 04:05 14.67125 65.06017 35899 ft 494 kts 303°
2026-05-05 04:05 14.70861 65.00059 35899 ft 494 kts 303°
2026-05-05 04:06 14.74597 64.94087 35904 ft 494 kts 303°
2026-05-05 04:06 14.78324 64.88125 35902 ft 494 kts 302°
2026-05-05 04:07 14.82050 64.82159 35902 ft 494 kts 302°
2026-05-05 04:07 14.85776 64.76188 35903 ft 494 kts 302°
2026-05-05 04:08 14.89497 64.70222 35897 ft 494 kts 302°
2026-05-05 04:08 14.93215 64.64254 35898 ft 493 kts 302°
2026-05-05 04:09 14.96907 64.58325 35902 ft 493 kts 302°
2026-05-05 04:09 15.00641 64.52325 35903 ft 493 kts 302°
2026-05-05 04:10 15.04350 64.46360 35901 ft 493 kts 302°
2026-05-05 04:10 15.08028 64.40439 35900 ft 492 kts 302°
2026-05-05 04:11 15.11728 64.34479 35904 ft 492 kts 302°
2026-05-05 04:11 15.15427 64.28516 35900 ft 492 kts 302°
2026-05-05 04:12 15.19127 64.22547 35904 ft 492 kts 302°
2026-05-05 04:12 15.22817 64.16588 35900 ft 492 kts 302°
2026-05-05 04:13 15.26509 64.10622 35899 ft 492 kts 302°
2026-05-05 04:13 15.30198 64.04657 35902 ft 492 kts 302°
2026-05-05 04:14 15.33887 63.98687 35900 ft 492 kts 302°
2026-05-05 04:14 15.37572 63.92718 35901 ft 492 kts 302°
2026-05-05 04:15 15.41253 63.86752 35901 ft 491 kts 302°
2026-05-05 04:15 15.44930 63.80787 35904 ft 491 kts 302°
2026-05-05 04:16 15.48605 63.74821 35900 ft 490 kts 302°
2026-05-05 04:16 15.52274 63.68859 35901 ft 490 kts 302°
2026-05-05 04:17 15.55936 63.62904 35901 ft 490 kts 302°
2026-05-05 04:17 15.59575 63.56983 35902 ft 490 kts 302°
2026-05-05 04:18 15.63231 63.51029 35904 ft 489 kts 302°
2026-05-05 04:18 15.66885 63.45073 35904 ft 489 kts 302°
2026-05-05 04:19 15.70536 63.39118 35902 ft 489 kts 302°
2026-05-05 04:19 15.73594 63.34125 35902 ft 489 kts 302°
2026-05-05 04:20 15.77215 63.28211 35898 ft 489 kts 302°
2026-05-05 04:20 15.80859 63.22254 35900 ft 488 kts 302°
2026-05-05 04:21 15.84496 63.16303 35900 ft 488 kts 302°
2026-05-05 04:21 15.88130 63.10352 35899 ft 488 kts 302°
2026-05-05 04:22 15.91763 63.04397 35899 ft 488 kts 302°
2026-05-05 04:22 15.95390 62.98449 35898 ft 488 kts 302°
2026-05-05 04:23 15.99018 62.92492 35901 ft 488 kts 302°
2026-05-05 04:23 16.02644 62.86534 35902 ft 488 kts 302°
2026-05-05 04:24 16.06267 62.80578 35898 ft 488 kts 302°
2026-05-05 04:25 16.11699 62.71638 35899 ft 487 kts 302°
2026-05-05 04:25 16.15320 62.65672 35898 ft 487 kts 302°
2026-05-05 04:26 16.18935 62.59711 35899 ft 487 kts 302°
2026-05-05 04:26 16.22544 62.53755 35900 ft 487 kts 302°
2026-05-05 04:27 16.26129 62.47833 35896 ft 486 kts 302°
2026-05-05 04:27 16.29754 62.41841 35898 ft 486 kts 302°
2026-05-05 04:28 16.33330 62.35925 35897 ft 486 kts 302°
2026-05-05 04:28 16.36924 62.29973 35895 ft 485 kts 302°
2026-05-05 04:29 16.40515 62.24021 35898 ft 485 kts 302°
2026-05-05 04:29 16.44102 62.18073 35901 ft 485 kts 302°
2026-05-05 04:30 16.47650 62.12183 35901 ft 485 kts 302°
2026-05-05 04:30 16.51225 62.06243 35899 ft 484 kts 302°
2026-05-05 04:31 16.54806 62.00288 35897 ft 484 kts 302°
2026-05-05 04:31 16.58359 61.94375 35900 ft 484 kts 302°
2026-05-05 04:32 16.61929 61.88431 35904 ft 484 kts 301°
2026-05-05 04:32 16.65492 61.82487 35898 ft 484 kts 301°
2026-05-05 04:33 16.69069 61.76521 35899 ft 486 kts 301°
2026-05-05 04:33 16.72646 61.70551 35884 ft 483 kts 301°
2026-05-05 04:34 16.76201 61.64609 35896 ft 484 kts 301°
2026-05-05 04:34 16.79780 61.58622 35891 ft 485 kts 301°
2026-05-05 04:35 16.83335 61.52670 35889 ft 482 kts 301°
2026-05-05 04:35 16.86876 61.46738 35887 ft 479 kts 301°
2026-05-05 04:36 16.90369 61.40878 35891 ft 473 kts 301°
2026-05-05 04:36 16.93828 61.35072 35888 ft 469 kts 301°
2026-05-05 04:37 16.97252 61.29320 35890 ft 469 kts 301°
2026-05-05 04:37 17.00689 61.23539 35895 ft 469 kts 301°
2026-05-05 04:38 17.04136 61.17739 35891 ft 469 kts 301°
2026-05-05 04:38 17.07582 61.11935 35895 ft 470 kts 301°
2026-05-05 04:39 17.11023 61.06135 35893 ft 471 kts 301°
2026-05-05 04:39 17.14484 61.00294 35891 ft 474 kts 301°
2026-05-05 04:40 17.17968 60.94411 35891 ft 476 kts 301°
2026-05-05 04:40 17.21457 60.88514 35890 ft 477 kts 301°
2026-05-05 04:41 17.24953 60.82601 35890 ft 478 kts 301°
2026-05-05 04:41 17.28455 60.76671 35887 ft 479 kts 301°
2026-05-05 04:42 17.31959 60.70733 35889 ft 480 kts 301°
2026-05-05 04:42 17.35462 60.64792 35886 ft 480 kts 301°
2026-05-05 04:43 17.38967 60.58843 35884 ft 480 kts 301°
2026-05-05 04:43 17.42448 60.52928 35880 ft 480 kts 301°
2026-05-05 04:44 17.45944 60.46983 35880 ft 480 kts 301°
2026-05-05 04:44 17.49442 60.41029 35881 ft 479 kts 301°
2026-05-05 04:45 17.52928 60.35090 35882 ft 479 kts 300°
2026-05-05 04:45 17.56416 60.29143 35884 ft 479 kts 300°
2026-05-05 04:46 17.59904 60.23190 35883 ft 479 kts 300°
2026-05-05 04:46 17.63388 60.17238 35882 ft 479 kts 300°
2026-05-05 04:47 17.66871 60.11283 35880 ft 479 kts 300°
2026-05-05 04:47 17.70351 60.05326 35875 ft 479 kts 300°
2026-05-05 04:48 17.73836 59.99363 35876 ft 479 kts 301°
2026-05-05 04:48 17.77492 59.93529 35876 ft 479 kts 303°
2026-05-05 04:49 17.81251 59.87754 35876 ft 479 kts 303°
2026-05-05 04:49 17.84989 59.81969 35875 ft 479 kts 303°
2026-05-05 04:50 17.88681 59.76196 35873 ft 479 kts 303°
2026-05-05 04:50 17.92387 59.70378 35873 ft 479 kts 302°
2026-05-05 04:51 17.96092 59.64556 35873 ft 479 kts 302°
2026-05-05 04:51 17.99797 59.58733 35878 ft 480 kts 302°
2026-05-05 04:52 18.03502 59.52904 35870 ft 480 kts 302°
2026-05-05 04:52 18.07205 59.47072 35874 ft 479 kts 302°
2026-05-05 04:53 18.10904 59.41244 35870 ft 479 kts 302°
2026-05-05 04:53 18.14601 59.35413 35868 ft 479 kts 302°
2026-05-05 04:54 18.18292 59.29587 35869 ft 479 kts 302°
2026-05-05 04:54 18.21983 59.23754 35870 ft 478 kts 302°
2026-05-05 04:55 18.25664 59.17930 35866 ft 478 kts 302°
2026-05-05 04:55 18.29350 59.12096 35862 ft 478 kts 302°
2026-05-05 04:56 18.33028 59.06267 35862 ft 478 kts 302°
2026-05-05 04:56 18.36708 59.00431 35864 ft 478 kts 302°
2026-05-05 04:57 18.38652 58.97345 35864 ft 478 kts 302°
2026-05-05 04:57 18.42305 58.91545 35862 ft 479 kts 302°
2026-05-05 04:58 18.45984 58.85697 35859 ft 479 kts 302°
2026-05-05 04:58 18.49660 58.79848 35858 ft 479 kts 302°
2026-05-05 04:59 18.53333 58.73998 35855 ft 479 kts 302°
2026-05-05 04:59 18.57009 58.68137 35854 ft 479 kts 302°
2026-05-05 05:00 18.60679 58.62283 35855 ft 479 kts 302°
2026-05-05 05:00 18.64345 58.56427 35858 ft 478 kts 302°
2026-05-05 05:01 18.68008 58.50569 35858 ft 478 kts 302°
2026-05-05 05:01 18.71715 58.44745 35852 ft 479 kts 305°
2026-05-05 05:02 18.76074 58.39416 35850 ft 480 kts 311°
2026-05-05 05:02 18.80613 58.34256 35851 ft 480 kts 311°
2026-05-05 05:03 18.85145 58.29075 35846 ft 480 kts 311°
2026-05-05 05:03 18.89654 58.23872 35847 ft 480 kts 311°
2026-05-05 05:04 18.94150 58.18660 35847 ft 480 kts 311°
2026-05-05 05:04 18.98617 58.13477 35845 ft 480 kts 311°
2026-05-05 05:05 19.03113 58.08258 35844 ft 480 kts 311°
2026-05-05 05:05 19.07607 58.03038 35842 ft 480 kts 310°
2026-05-05 05:06 19.12106 57.97807 35839 ft 480 kts 311°
2026-05-05 05:06 19.16594 57.92585 35832 ft 480 kts 311°
2026-05-05 05:07 19.21088 57.87349 35824 ft 480 kts 311°
2026-05-05 05:07 19.25439 57.82279 35820 ft 480 kts 311°
2026-05-05 05:08 19.29925 57.77046 35820 ft 481 kts 311°
2026-05-05 05:08 19.34422 57.71794 35823 ft 481 kts 311°
2026-05-05 05:09 19.38911 57.66547 35829 ft 481 kts 311°
2026-05-05 05:09 19.43408 57.61287 35831 ft 481 kts 311°
2026-05-05 05:10 19.47901 57.56026 35829 ft 481 kts 311°
2026-05-05 05:10 19.51634 57.51651 35828 ft 482 kts 311°
2026-05-05 05:11 19.56857 57.45526 35815 ft 482 kts 311°
2026-05-05 05:11 19.61347 57.40254 35813 ft 482 kts 311°
2026-05-05 05:12 19.65114 57.35829 35800 ft 482 kts 311°
2026-05-05 05:12 19.69603 57.30550 35801 ft 482 kts 311°
2026-05-05 05:13 19.74060 57.25305 35802 ft 481 kts 311°
2026-05-05 05:13 19.78542 57.20024 35798 ft 481 kts 311°
2026-05-05 05:14 19.83019 57.14745 35801 ft 481 kts 311°
2026-05-05 05:14 19.87495 57.09463 35801 ft 481 kts 311°
2026-05-05 05:15 19.91964 57.04183 35803 ft 481 kts 311°
2026-05-05 05:15 19.96438 56.98894 35806 ft 481 kts 311°
2026-05-05 05:16 20.00900 56.93612 35809 ft 480 kts 311°
2026-05-05 05:16 20.05367 56.88321 35810 ft 480 kts 311°
2026-05-05 05:17 20.09829 56.83029 35811 ft 480 kts 311°
2026-05-05 05:17 20.14288 56.77736 35814 ft 480 kts 311°
2026-05-05 05:18 20.18746 56.72440 35812 ft 480 kts 311°
2026-05-05 05:18 20.23188 56.67137 35815 ft 480 kts 310°
2026-05-05 05:19 20.27592 56.61867 35815 ft 480 kts 310°
2026-05-05 05:19 20.32030 56.56555 35819 ft 480 kts 310°
2026-05-05 05:20 20.36468 56.51239 35827 ft 480 kts 310°
2026-05-05 05:20 20.40902 56.45919 35823 ft 480 kts 310°
2026-05-05 05:21 20.45324 56.40595 35825 ft 479 kts 310°
2026-05-05 05:21 20.49742 56.35269 35825 ft 479 kts 310°
2026-05-05 05:22 20.54159 56.29942 35829 ft 479 kts 310°
2026-05-05 05:22 20.58576 56.24619 35830 ft 479 kts 310°
2026-05-05 05:23 20.62997 56.19301 35830 ft 479 kts 310°
2026-05-05 05:23 20.67413 56.13983 35831 ft 478 kts 310°
2026-05-05 05:24 20.71826 56.08662 35831 ft 478 kts 310°
2026-05-05 05:24 20.76229 56.03345 35832 ft 478 kts 310°
2026-05-05 05:25 20.80632 55.98024 35832 ft 478 kts 310°
2026-05-05 05:25 20.85032 55.92701 35832 ft 477 kts 310°
2026-05-05 05:26 20.89429 55.87386 35833 ft 477 kts 310°
2026-05-05 05:26 20.93828 55.82079 35831 ft 476 kts 310°
2026-05-05 05:27 20.98188 55.76812 35833 ft 476 kts 310°
2026-05-05 05:27 21.04764 55.68855 35832 ft 475 kts 310°
2026-05-05 05:28 21.09145 55.63547 35832 ft 475 kts 310°
2026-05-05 05:28 21.13512 55.58251 35831 ft 475 kts 310°
2026-05-05 05:29 21.17877 55.52951 35827 ft 474 kts 310°
2026-05-05 05:29 21.22239 55.47651 35830 ft 474 kts 309°
2026-05-05 05:30 21.25992 55.41925 35836 ft 469 kts 295°
2026-05-05 05:30 21.28138 55.35358 35830 ft 466 kts 281°
2026-05-05 05:31 21.29325 55.28535 35825 ft 466 kts 279°
2026-05-05 05:31 21.30468 55.21688 35826 ft 466 kts 279°
2026-05-05 05:32 21.31643 55.14855 35826 ft 466 kts 280°
2026-05-05 05:32 21.32845 55.08019 35826 ft 466 kts 280°
2026-05-05 05:33 21.34042 55.01235 35823 ft 466 kts 280°
2026-05-05 05:33 21.35253 54.94364 35826 ft 466 kts 280°
2026-05-05 05:34 21.36444 54.87577 35822 ft 466 kts 280°
2026-05-05 05:34 21.37639 54.80748 35824 ft 466 kts 280°
2026-05-05 05:35 21.38832 54.73913 35820 ft 466 kts 279°
2026-05-05 05:35 21.40020 54.67084 35821 ft 466 kts 279°
2026-05-05 05:36 21.41206 54.60258 35820 ft 465 kts 279°
2026-05-05 05:36 21.42388 54.53435 35818 ft 465 kts 279°
2026-05-05 05:37 21.43567 54.46612 35821 ft 465 kts 279°
2026-05-05 05:37 21.44743 54.39790 35820 ft 465 kts 279°
2026-05-05 05:38 21.45915 54.32969 35819 ft 465 kts 279°
2026-05-05 05:38 21.47086 54.26146 35824 ft 465 kts 279°
2026-05-05 05:39 21.48253 54.19324 35824 ft 465 kts 279°
2026-05-05 05:39 21.49418 54.12497 35824 ft 465 kts 279°
2026-05-05 05:40 21.50571 54.05720 35826 ft 464 kts 279°
2026-05-05 05:40 21.51728 53.98903 35823 ft 464 kts 279°
2026-05-05 05:41 21.52890 53.92043 35825 ft 464 kts 279°
2026-05-05 05:41 21.54034 53.85267 35823 ft 464 kts 279°
2026-05-05 05:42 21.55183 53.78447 35830 ft 464 kts 279°
2026-05-05 05:42 21.56328 53.71635 35826 ft 464 kts 279°
2026-05-05 05:43 21.57471 53.64819 35830 ft 463 kts 279°
2026-05-05 05:43 21.58609 53.58010 35830 ft 463 kts 279°
2026-05-05 05:44 21.59744 53.51200 35827 ft 463 kts 279°
2026-05-05 05:44 21.60877 53.44391 35827 ft 463 kts 279°
2026-05-05 05:45 21.62006 53.37585 35828 ft 463 kts 279°
2026-05-05 05:45 21.63132 53.30781 35831 ft 462 kts 279°
2026-05-05 05:46 21.64253 53.23982 35829 ft 462 kts 279°
2026-05-05 05:46 21.65372 53.17183 35830 ft 462 kts 279°
2026-05-05 05:47 21.66482 53.10424 35829 ft 462 kts 279°
2026-05-05 05:47 21.67595 53.03625 35829 ft 462 kts 278°
2026-05-05 05:48 21.68704 52.96829 35830 ft 462 kts 278°
2026-05-05 05:48 21.69811 52.90034 35833 ft 461 kts 278°
2026-05-05 05:49 21.70915 52.83233 35831 ft 461 kts 278°
2026-05-05 05:49 21.72015 52.76446 35832 ft 461 kts 278°
2026-05-05 05:50 21.73114 52.69647 35831 ft 461 kts 278°
2026-05-05 05:50 21.74208 52.62854 35831 ft 461 kts 278°
2026-05-05 05:51 21.75298 52.56068 35825 ft 461 kts 278°
2026-05-05 05:51 21.76387 52.49276 35829 ft 460 kts 278°
2026-05-05 05:52 21.77471 52.42492 35832 ft 460 kts 278°
2026-05-05 05:52 21.78546 52.35748 35832 ft 460 kts 278°
2026-05-05 05:53 21.79631 52.28924 35832 ft 460 kts 278°
2026-05-05 05:53 21.80698 52.22189 35830 ft 460 kts 278°
2026-05-05 05:54 21.81770 52.15409 35832 ft 459 kts 278°
2026-05-05 05:54 21.82840 52.08628 35829 ft 459 kts 278°
2026-05-05 05:55 21.83906 52.01849 35829 ft 459 kts 278°
2026-05-05 05:55 21.84969 51.95069 35831 ft 459 kts 278°
2026-05-05 05:56 21.86028 51.88293 35830 ft 459 kts 278°
2026-05-05 05:56 21.87085 51.81514 35823 ft 459 kts 278°
2026-05-05 05:57 21.88139 51.74738 35829 ft 459 kts 278°
2026-05-05 05:57 21.89190 51.67964 35829 ft 459 kts 278°
2026-05-05 05:58 21.90238 51.61184 35829 ft 459 kts 278°
2026-05-05 05:58 21.91285 51.54399 35826 ft 459 kts 278°
2026-05-05 05:59 21.92319 51.47670 35827 ft 459 kts 278°
2026-05-05 05:59 21.93359 51.40888 35831 ft 459 kts 278°
2026-05-05 06:00 21.94396 51.34109 35828 ft 459 kts 277°
2026-05-05 06:00 21.95430 51.27331 35835 ft 458 kts 277°
2026-05-05 06:01 21.96461 51.20549 35831 ft 458 kts 277°
2026-05-05 06:01 21.97488 51.13773 35831 ft 459 kts 277°
2026-05-05 06:02 21.98513 51.06991 35830 ft 458 kts 277°
2026-05-05 06:02 21.99535 51.00211 35830 ft 458 kts 277°
2026-05-05 06:03 22.00554 50.93434 35830 ft 458 kts 277°
2026-05-05 06:03 22.01400 50.87795 35829 ft 458 kts 277°
2026-05-05 06:04 22.02578 50.79911 35829 ft 458 kts 277°
2026-05-05 06:04 22.03589 50.73126 35831 ft 458 kts 277°
2026-05-05 06:05 22.04433 50.67447 35830 ft 459 kts 277°
2026-05-05 06:05 22.05441 50.60652 35832 ft 459 kts 277°
2026-05-05 06:06 22.06443 50.53871 35827 ft 459 kts 277°
2026-05-05 06:06 22.07444 50.47074 35826 ft 459 kts 277°
2026-05-05 06:07 22.08436 50.40326 35830 ft 459 kts 277°
2026-05-05 06:07 22.09437 50.33492 35831 ft 459 kts 277°
2026-05-05 06:08 22.10430 50.26695 35830 ft 459 kts 277°
2026-05-05 06:08 22.11414 50.19940 35831 ft 459 kts 277°
2026-05-05 06:09 22.12401 50.13142 35832 ft 459 kts 277°
2026-05-05 06:09 22.13385 50.06340 35829 ft 459 kts 277°
2026-05-05 06:10 22.14369 49.99529 35829 ft 459 kts 277°
2026-05-05 06:10 22.15348 49.92724 35831 ft 459 kts 277°
2026-05-05 06:11 22.16325 49.85914 35828 ft 459 kts 277°
2026-05-05 06:11 22.17299 49.79104 35829 ft 459 kts 277°
2026-05-05 06:12 22.18269 49.72297 35826 ft 459 kts 277°
2026-05-05 06:12 22.19239 49.65477 35828 ft 459 kts 276°
2026-05-05 06:13 22.20205 49.58657 35827 ft 460 kts 276°
2026-05-05 06:13 22.21168 49.51843 35827 ft 460 kts 276°
2026-05-05 06:14 22.22128 49.45027 35830 ft 460 kts 276°
2026-05-05 06:14 22.23086 49.38202 35830 ft 460 kts 276°
2026-05-05 06:15 22.24042 49.31378 35830 ft 460 kts 276°
2026-05-05 06:15 22.24992 49.24563 35831 ft 460 kts 276°
2026-05-05 06:16 22.25935 49.17785 35828 ft 459 kts 276°
2026-05-05 06:16 22.26881 49.10963 35834 ft 459 kts 276°
2026-05-05 06:17 22.27824 49.04147 35829 ft 459 kts 276°
2026-05-05 06:17 22.28763 48.97330 35830 ft 459 kts 276°
2026-05-05 06:18 22.29699 48.90513 35829 ft 459 kts 276°
2026-05-05 06:18 22.30632 48.83701 35829 ft 459 kts 276°
2026-05-05 06:19 22.31562 48.76887 35833 ft 458 kts 276°
2026-05-05 06:19 22.32488 48.70084 35831 ft 458 kts 276°
2026-05-05 06:20 22.33411 48.63278 35827 ft 458 kts 276°
2026-05-05 06:20 22.34330 48.56474 35830 ft 458 kts 276°
2026-05-05 06:21 22.35246 48.49676 35834 ft 457 kts 276°
2026-05-05 06:21 22.36154 48.42917 35831 ft 457 kts 276°
2026-05-05 06:22 22.37064 48.36120 35832 ft 457 kts 276°
2026-05-05 06:22 22.37971 48.29328 35835 ft 457 kts 276°
2026-05-05 06:23 22.38874 48.22537 35835 ft 457 kts 276°
2026-05-05 06:23 22.39774 48.15748 35835 ft 456 kts 276°
2026-05-05 06:24 22.40671 48.08956 35842 ft 456 kts 276°
2026-05-05 06:24 22.41565 48.02168 35845 ft 456 kts 276°
2026-05-05 06:25 22.42457 47.95374 35849 ft 456 kts 276°
2026-05-05 06:25 22.43344 47.88593 35844 ft 456 kts 276°
2026-05-05 06:26 22.44229 47.81806 35836 ft 456 kts 275°
2026-05-05 06:26 22.45112 47.75018 35844 ft 456 kts 275°
2026-05-05 06:27 22.46428 47.64845 35845 ft 456 kts 275°
2026-05-05 06:28 22.47297 47.58107 35852 ft 455 kts 275°
2026-05-05 06:28 22.48168 47.51324 35856 ft 455 kts 275°
2026-05-05 06:29 22.49035 47.44550 35857 ft 455 kts 275°
2026-05-05 06:29 22.49900 47.37774 35862 ft 455 kts 275°
2026-05-05 06:30 22.50869 47.31010 35864 ft 456 kts 279°
2026-05-05 06:30 22.52735 47.24434 35872 ft 459 kts 287°
2026-05-05 06:31 22.55034 47.17982 35875 ft 459 kts 288°
2026-05-05 06:31 22.57325 47.11534 35875 ft 459 kts 287°
2026-05-05 06:32 22.59590 47.05079 35876 ft 458 kts 287°
2026-05-05 06:32 22.61837 46.98635 35883 ft 458 kts 287°
2026-05-05 06:33 22.64081 46.92186 35884 ft 457 kts 287°
2026-05-05 06:33 22.66319 46.85747 35885 ft 457 kts 287°
2026-05-05 06:34 22.68552 46.79315 35888 ft 456 kts 287°
2026-05-05 06:34 22.70766 46.72931 35894 ft 456 kts 287°
2026-05-05 06:35 22.72989 46.66508 35895 ft 455 kts 287°
2026-05-05 06:35 22.75208 46.60086 35901 ft 455 kts 287°
2026-05-05 06:36 22.77425 46.53663 35904 ft 455 kts 287°
2026-05-05 06:36 22.79637 46.47243 35906 ft 455 kts 287°
2026-05-05 06:37 22.81676 46.40778 35910 ft 452 kts 281°
2026-05-05 06:37 22.82764 46.34116 35911 ft 448 kts 272°
2026-05-05 06:38 22.83245 46.27389 35917 ft 448 kts 272°
2026-05-05 06:38 22.83704 46.20657 35905 ft 448 kts 272°
2026-05-05 06:39 22.84180 46.13924 35907 ft 448 kts 272°
2026-05-05 06:39 22.84667 46.07186 35902 ft 448 kts 272°
2026-05-05 06:40 22.85155 46.00453 35899 ft 448 kts 272°
2026-05-05 06:40 22.85639 45.93714 35898 ft 448 kts 272°
2026-05-05 06:41 22.86117 45.87015 35891 ft 448 kts 272°
2026-05-05 06:41 22.86594 45.80284 35886 ft 448 kts 272°
2026-05-05 06:42 22.87069 45.73557 35890 ft 447 kts 271°
2026-05-05 06:42 22.87540 45.66831 35890 ft 447 kts 271°
2026-05-05 06:43 22.88008 45.60109 35886 ft 447 kts 271°
2026-05-05 06:43 22.88474 45.53378 35891 ft 447 kts 271°
2026-05-05 06:44 22.88936 45.46656 35886 ft 447 kts 271°
2026-05-05 06:44 22.89396 45.39926 35889 ft 447 kts 271°
2026-05-05 06:45 22.89853 45.33201 35884 ft 448 kts 271°
2026-05-05 06:45 22.90308 45.26466 35892 ft 448 kts 271°
2026-05-05 06:46 22.90759 45.19734 35890 ft 448 kts 271°
2026-05-05 06:46 22.91209 45.13002 35893 ft 447 kts 271°
2026-05-05 06:47 22.91654 45.06285 35893 ft 447 kts 271°
2026-05-05 06:47 22.92097 44.99570 35905 ft 446 kts 271°
2026-05-05 06:48 22.92536 44.92865 35903 ft 446 kts 271°
2026-05-05 06:48 22.92973 44.86155 35901 ft 445 kts 271°
2026-05-05 06:49 22.93406 44.79471 35912 ft 444 kts 271°
2026-05-05 06:49 22.93835 44.72828 35908 ft 444 kts 271°
2026-05-05 06:50 22.94661 44.66182 35920 ft 447 kts 278°
2026-05-05 06:50 22.96423 44.59683 35927 ft 450 kts 284°
2026-05-05 06:51 22.98448 44.53251 35921 ft 450 kts 284°
2026-05-05 06:51 23.00462 44.46824 35922 ft 450 kts 284°
2026-05-05 06:52 23.02454 44.40390 35925 ft 449 kts 284°
2026-05-05 06:52 23.04430 44.33967 35921 ft 449 kts 284°
2026-05-05 06:53 23.06402 44.27543 35924 ft 448 kts 283°
2026-05-05 06:53 23.08369 44.21129 35924 ft 448 kts 283°
2026-05-05 06:54 23.10333 44.14714 35933 ft 447 kts 283°
2026-05-05 06:54 23.12291 44.08308 35948 ft 447 kts 283°
2026-05-05 06:55 23.14248 44.01897 35943 ft 447 kts 283°
2026-05-05 06:55 23.16189 43.95527 35933 ft 447 kts 283°
2026-05-05 06:56 23.18137 43.89122 35941 ft 446 kts 283°
2026-05-05 06:56 23.20083 43.82716 35953 ft 446 kts 283°
2026-05-05 06:57 23.22022 43.76322 35963 ft 446 kts 283°
2026-05-05 06:57 23.23645 43.70962 35967 ft 445 kts 283°
2026-05-05 06:58 23.25580 43.64560 35975 ft 445 kts 283°
2026-05-05 06:58 23.27511 43.58164 35978 ft 445 kts 283°
2026-05-05 06:59 23.29421 43.51820 35984 ft 445 kts 283°
2026-05-05 06:59 23.31341 43.45427 35989 ft 444 kts 282°
2026-05-05 07:00 23.33255 43.39041 35997 ft 444 kts 282°
2026-05-05 07:00 23.35162 43.32668 36004 ft 443 kts 282°
2026-05-05 07:01 23.37066 43.26296 36014 ft 442 kts 282°
2026-05-05 07:01 23.38965 43.19928 36022 ft 442 kts 282°
2026-05-05 07:02 23.40862 43.13562 36019 ft 441 kts 282°
2026-05-05 07:02 23.42743 43.07208 36028 ft 441 kts 282°
2026-05-05 07:03 23.44618 43.00854 36037 ft 440 kts 282°
2026-05-05 07:03 23.46487 42.94510 36035 ft 440 kts 282°
2026-05-05 07:04 23.48351 42.88176 36037 ft 439 kts 282°
2026-05-05 07:04 23.50212 42.81841 36038 ft 438 kts 282°
2026-05-05 07:05 23.52053 42.75565 36042 ft 438 kts 282°
2026-05-05 07:05 23.53916 42.69247 36039 ft 438 kts 282°
2026-05-05 07:06 23.55780 42.62939 36042 ft 437 kts 282°
2026-05-05 07:06 23.57639 42.56635 36036 ft 437 kts 282°
2026-05-05 07:07 23.59495 42.50325 36040 ft 437 kts 282°
2026-05-05 07:07 23.61346 42.44016 36038 ft 437 kts 281°
2026-05-05 07:08 23.63196 42.37705 36042 ft 437 kts 281°
2026-05-05 07:08 23.65044 42.31391 36042 ft 437 kts 281°
2026-05-05 07:09 23.66883 42.25072 36039 ft 437 kts 281°
2026-05-05 07:09 23.68702 42.18751 36041 ft 437 kts 281°
2026-05-05 07:10 23.70519 42.12428 36039 ft 437 kts 281°
2026-05-05 07:10 23.72336 42.06101 36037 ft 436 kts 281°
2026-05-05 07:11 23.74134 41.99833 36041 ft 436 kts 281°
2026-05-05 07:11 23.75959 41.93525 36036 ft 435 kts 281°
2026-05-05 07:12 23.77792 41.87233 36038 ft 435 kts 281°
2026-05-05 07:12 23.79617 41.80947 36034 ft 434 kts 281°
2026-05-05 07:13 23.81433 41.74665 36033 ft 434 kts 281°
2026-05-05 07:13 23.83238 41.68384 36034 ft 433 kts 281°
2026-05-05 07:14 23.85038 41.62106 36032 ft 433 kts 281°
2026-05-05 07:14 23.86835 41.55832 36029 ft 433 kts 281°
2026-05-05 07:15 23.88626 41.49563 36030 ft 432 kts 281°
2026-05-05 07:15 23.90414 41.43288 36027 ft 432 kts 281°
2026-05-05 07:16 23.92202 41.37005 36023 ft 432 kts 281°
2026-05-05 07:16 23.93077 41.33935 35845 ft 427 kts 281°
2026-05-05 07:16 23.93960 41.30823 35201 ft 429 kts 281°
2026-05-05 07:16 23.94842 41.27707 34422 ft 431 kts 281°
2026-05-05 07:17 23.95729 41.24569 33536 ft 434 kts 281°
2026-05-05 07:17 23.96621 41.21413 32614 ft 436 kts 282°
2026-05-05 07:17 23.97518 41.18240 31698 ft 437 kts 282°
2026-05-05 07:17 23.98414 41.15073 31017 ft 434 kts 282°
2026-05-05 07:18 23.99302 41.11933 30336 ft 431 kts 282°
2026-05-05 07:18 24.00184 41.08812 29604 ft 428 kts 282°
2026-05-05 07:18 24.01057 41.05716 28913 ft 424 kts 282°
2026-05-05 07:18 24.01922 41.02643 28257 ft 420 kts 282°
2026-05-05 07:19 24.02771 40.99625 27635 ft 417 kts 283°
2026-05-05 07:19 24.03627 40.96582 27009 ft 414 kts 283°
2026-05-05 07:19 24.04469 40.93583 26413 ft 411 kts 283°
2026-05-05 07:19 24.05304 40.90605 25809 ft 408 kts 283°
2026-05-05 07:20 24.06133 40.87646 25221 ft 407 kts 283°
2026-05-05 07:20 24.06960 40.84692 24609 ft 406 kts 283°
2026-05-05 07:20 24.07785 40.81739 24015 ft 405 kts 283°
2026-05-05 07:20 24.08608 40.78791 23376 ft 405 kts 283°
2026-05-05 07:21 24.09430 40.75845 22708 ft 404 kts 283°
2026-05-05 07:21 24.10247 40.72917 22091 ft 402 kts 283°
2026-05-05 07:21 24.11062 40.69996 21497 ft 400 kts 283°
2026-05-05 07:21 24.11871 40.67094 20914 ft 398 kts 283°
2026-05-05 07:22 24.12673 40.64210 20346 ft 396 kts 283°
2026-05-05 07:22 24.13472 40.61332 19771 ft 395 kts 283°
2026-05-05 07:22 24.14270 40.58460 19205 ft 394 kts 283°
2026-05-05 07:22 24.15065 40.55595 18610 ft 393 kts 283°
2026-05-05 07:23 24.15861 40.52726 17995 ft 393 kts 283°
2026-05-05 07:23 24.16521 40.49839 17366 ft 390 kts 278°
2026-05-05 07:23 24.16997 40.46963 16805 ft 388 kts 277°
2026-05-05 07:23 24.17476 40.44028 16222 ft 386 kts 277°
2026-05-05 07:24 24.17949 40.41139 15651 ft 385 kts 277°
2026-05-05 07:24 24.18422 40.38259 15096 ft 384 kts 277°
2026-05-05 07:24 24.18896 40.35388 14539 ft 383 kts 277°
2026-05-05 07:24 24.19364 40.32559 13973 ft 383 kts 277°
2026-05-05 07:25 24.19839 40.29690 13351 ft 383 kts 277°
2026-05-05 07:25 24.20313 40.26828 12812 ft 381 kts 277°
2026-05-05 07:25 24.20784 40.23987 12297 ft 377 kts 277°
2026-05-05 07:25 24.21249 40.21180 11792 ft 373 kts 277°
2026-05-05 07:26 24.21708 40.18403 11331 ft 368 kts 278°
2026-05-05 07:26 24.22160 40.15668 11071 ft 358 kts 278°
2026-05-05 07:26 24.22594 40.13045 10985 ft 343 kts 278°
2026-05-05 07:26 24.23011 40.10526 10898 ft 329 kts 278°
2026-05-05 07:27 24.23408 40.08116 10806 ft 312 kts 277°
2026-05-05 07:27 24.23774 40.05879 10598 ft 285 kts 277°
2026-05-05 07:27 24.24111 40.03820 10266 ft 266 kts 277°
2026-05-05 07:27 24.24321 40.02539 10190 ft 249 kts 277°
2026-05-05 07:28 24.24617 40.00725 10056 ft 234 kts 277°
2026-05-05 07:28 24.24852 39.99276 9970 ft 251 kts 277°
2026-05-05 07:28 24.25168 39.97324 9653 ft 264 kts 278°
2026-05-05 07:29 24.25494 39.95335 9318 ft 266 kts 278°
2026-05-05 07:29 24.25819 39.93345 9001 ft 265 kts 278°
2026-05-05 07:29 24.26145 39.91359 8668 ft 264 kts 278°
2026-05-05 07:29 24.26469 39.89386 8344 ft 263 kts 278°
2026-05-05 07:30 24.26784 39.87453 8043 ft 262 kts 278°
2026-05-05 07:30 24.27425 39.83519 7429 ft 260 kts 278°
2026-05-05 07:30 24.27741 39.81594 7272 ft 254 kts 278°
2026-05-05 07:31 24.28048 39.79717 7183 ft 246 kts 278°
2026-05-05 07:31 24.28415 39.77911 6915 ft 242 kts 292°
2026-05-05 07:31 24.29472 39.76517 6694 ft 245 kts 326°
2026-05-05 07:31 24.31099 39.75944 6429 ft 246 kts 346°
2026-05-05 07:32 24.32794 39.75602 6099 ft 249 kts 345°
2026-05-05 07:32 24.34491 39.75253 5765 ft 247 kts 346°
2026-05-05 07:32 24.36171 39.74897 5522 ft 244 kts 345°
2026-05-05 07:32 24.37881 39.74529 5165 ft 257 kts 346°
2026-05-05 07:33 24.39647 39.74151 4856 ft 256 kts 347°
2026-05-05 07:33 24.41343 39.73797 4459 ft 237 kts 347°
2026-05-05 07:33 24.42882 39.73472 4205 ft 219 kts 347°
2026-05-05 07:33 24.44338 39.73158 3928 ft 206 kts 347°
2026-05-05 07:34 24.45676 39.72891 3725 ft 186 kts 348°
2026-05-05 07:34 24.46885 39.72643 3463 ft 165 kts 351°
2026-05-05 07:34 24.47988 39.72508 3371 ft 156 kts 347°
2026-05-05 07:34 24.49061 39.72194 3322 ft 163 kts 341°
2026-05-05 07:35 24.50176 39.71858 3056 ft 170 kts 347°
2026-05-05 07:35 24.51297 39.71587 2740 ft 161 kts 347°
2026-05-05 07:35 24.52371 39.71370 2441 ft 155 kts 351°
2026-05-05 07:35 24.53445 39.71197 2234 ft 158 kts 351°
2026-05-05 07:36 24.54522 39.71001 2127 ft 149 kts 348°
2026-05-05 07:36 24.55421 39.70804 2130 ft 108 kts 349°
2026-05-05 07:36 24.55976 39.70695 2132 ft 57 kts 357°
2026-05-05 07:36 24.56194 39.70719 2137 ft 14 kts 15°
2026-05-05 07:37 24.56263 39.70767 2141 ft 11 kts 66°
2026-05-05 07:37 24.56237 39.70821 2143 ft 8 kts 154°
2026-05-05 07:37 24.56179 39.70837 2143 ft 9 kts 167°
2026-05-05 07:37 24.56111 39.70853 2142 ft 11 kts 171°
2026-05-05 07:38 24.56024 39.70870 2142 ft 14 kts 169°
2026-05-05 07:38 24.55918 39.70892 2142 ft 17 kts 169°
2026-05-05 07:38 24.55796 39.70919 2141 ft 18 kts 168°
2026-05-05 07:38 24.55670 39.70946 2140 ft 18 kts 169°
2026-05-05 07:39 24.55544 39.70973 2140 ft 18 kts 168°
2026-05-05 07:39 24.55419 39.71000 2140 ft 18 kts 169°
2026-05-05 07:39 24.55300 39.71025 2140 ft 15 kts 169°
2026-05-05 07:39 24.55236 39.71058 2141 ft 10 kts 123°
2026-05-05 07:40 24.55232 39.71132 2143 ft 10 kts 81°
2026-05-05 07:40 24.55230 39.71206 2145 ft 10 kts 117°
2026-05-05 07:40 24.55178 39.71252 2145 ft 9 kts 129°
2026-05-05 07:40 24.55172 39.71302 2145 ft 5 kts 78°
2026-05-05 07:41 24.55177 39.71333 2146 ft 3 kts 79°
2026-05-05 07:41 24.55178 39.71334 2146 ft 0 kts 79°